EW8345 Weather Reports


time (UTC)temp
C
wind
direction
speed
KPH
gust
KPH
rain 1hr
cm
rain 24hr
cm
rain mn
cm
humidity
%
barometer
mb
20260505053027 0 324 0.0 4.8 0.00 0.05 0.05 91 1016.8
20260505051525 1 324 0.0 3.2 0.00 0.05 0.05 91 1016.8
20260505041521 1 324 1.6 8.0 0.00 0.05 0.05 90 1016.8
20260505040021 1 325 0.0 4.8 0.00 0.05 0.05 90 1016.8
20260505034522 1 325 1.6 6.4 0.00 0.05 0.05 90 1016.8
20260505033022 1 325 0.0 1.6 0.00 0.05 0.05 90 1016.6
20260505031537 1 325 0.0 3.2 0.03 0.05 0.05 89 1016.5
20260505030019 1 325 0.0 1.6 0.03 0.05 0.05 89 1016.3
20260505024531 1 325 0.0 6.4 0.03 0.05 0.05 88 1016.5
20260505023017 1 327 6.4 16.1 0.03 0.05 0.05 85 1016.4
20260505021520 2 350 3.2 19.3 0.00 0.03 0.03 83 1016.1
20260505020027 3 360 6.4 17.7 0.00 0.03 0.03 81 1016.0
20260505014525 4 182 3.2 22.5 0.00 0.03 0.03 78 1015.6
20260505013015 5 221 3.2 9.7 0.00 0.03 0.03 78 1015.6
20260505011523 6 221 9.7 19.3 0.00 0.03 0.03 72 1015.3
20260505010015 6 332 0.0 6.4 0.00 0.03 0.03 73 1015.2
20260505004533 6 332 3.2 6.4 0.00 0.03 0.03 72 1015.2
20260505003013 6 332 1.6 6.4 0.00 0.03 0.03 72 1015.3
20260505001512 6 332 3.2 8.0 0.00 0.03 0.03 72 1015.4
20260505000020 6 332 0.0 3.2 0.00 0.03 0.03 73 1015.6
20260504234513 6 332 0.0 4.8 0.00 0.03 0.03 77 1016.0
20260504233010 6 332 1.6 6.4 0.03 0.03 0.03 79 1015.9
20260504231508 5 332 4.8 9.7 0.03 0.03 0.03 78 1016.3
20260504230008 5 332 0.0 6.4 0.03 0.03 0.03 84 1016.1
20260504224508 4 332 3.2 22.5 0.03 0.03 0.03 82 1016.3
20260504223006 6 302 24.1 37.0 0.00 0.00 0.00 65 1016.2
20260504221505 10 337 8.0 20.9 0.00 0.00 0.00 44 1015.4
20260504220001 11 306 11.3 22.5 0.00 0.00 0.00 39 1015.6
20260504214600 11 296 3.2 11.3 0.00 0.00 0.00 39 1015.7
20260504213105 12 290 3.2 11.3 0.00 0.00 0.00 39 1015.8
20260504211605 11 292 8.0 20.9 0.00 0.00 0.00 47 1016.1
20260504210057 11 244 4.8 17.7 0.00 0.00 0.00 41 1016.2
20260504204602 11 296 8.0 25.7 0.00 0.00 0.00 44 1016.2
20260504203103 11 340 12.9 30.6 0.00 0.00 0.00 36 1016.0
20260504201552 13 308 12.9 22.5 0.00 0.00 0.00 36 1016.0
20260504200051 11 302 12.9 22.5 0.00 0.00 0.00 37 1016.1
20260504194549 10 336 14.5 25.7 0.00 0.00 0.00 34 1016.1
20260504193048 10 308 14.5 25.7 0.00 0.00 0.00 34 1016.1
20260504191547 11 294 14.5 33.8 0.00 0.00 0.00 30 1016.2
20260504190046 11 334 9.7 19.3 0.00 0.00 0.00 34 1016.4
20260504184543 12 327 6.4 16.1 0.00 0.00 0.00 32 1016.6
20260504183041 12 297 6.4 24.1 0.00 0.00 0.00 35 1017.0
20260504181538 11 294 9.7 32.2 0.00 0.00 0.00 38 1017.2
20260504180036 10 269 16.1 35.4 0.00 0.00 0.00 46 1017.5
20260504174534 9 305 12.9 22.5 0.00 0.00 0.00 51 1017.7
20260504173036 7 271 6.4 16.1 0.00 0.00 0.00 50 1017.7
20260504171532 7 292 11.3 24.1 0.00 0.00 0.00 53 1017.6
20260504081532 -1 277 1.6 6.4 0.00 0.00 0.00 71 1018.3